Location: Eboldshausen
(51.7766°N, 10.0050°E)
Time: 16:55:31
(UTC+00:00)

Cosmos 921 Rocket - Pass Details

Date: 15 November 2025
Orbit: 563 x 621 km, 75.8° (Epoch: 10 December)

Event Time Altitude Azimuth Distance (km) Brightness Sun altitude
Rises 17:04:35 0° 221° (SW) 2,837 7.4 -14.6°
Reaches altitude 10° 17:06:54 10° 229° (SW) 1,949 6.6 -14.9°
Maximum altitude 17:11:00 40° 300° (WNW) 907 4.3 -15.5°
Drops below altitude 10° 17:15:13 10° 10° (N) 1,990 5.5 -16.2°
Enters shadow 17:16:34 - 15° (NNE) 2,507 5.9 -16.4°
